Location: College Park
(38.9810°N, 76.9370°W)
Time: 15:14:20
(UTC-05:00)

N. Korean satellite - Pass Details

Date: 03 January 2018
Orbit: 458 x 515 km, 97.2° (Epoch: 21 January)

Event Time Altitude Azimuth Distance (km) Brightness Sun altitude
Rises 17:49:44 0° 158° (SSE) 2,616 10.3 -9.9°
Reaches altitude 10° 17:51:51 10° 154° (SSE) 1,731 9.3 -10.3°
Maximum altitude 17:55:31 57° 76° (ENE) 608 6.7 -11.0°
Drops below altitude 10° 17:59:10 10° 357° (N) 1,726 9.2 -11.6°
Sets 18:01:16 0° 353° (N) 2,607 10.1 -12.0°
